Tracking 28790 objects as of 19-Apr-2024
HD Live streaming from Space Station
objects crossing your sky now

STARLINK-2757

Track STARLINK-2757 now!
10-day predictions
STARLINK-2757 is classified as:


NORAD ID: 48604
Int'l Code: 2021-041BD
Perigee: 553.5 km
Apogee: 555.4 km
Inclination: 53.1 °
Period: 95.6 minutes
Semi major axis: 6925 km
RCS: Unknown
Launch date: May 15, 2021
Source: United States (US)
Launch site: AIR FORCE EASTERN TEST RANGE (AFETR)
Your satellite tracking list
Your tracking list is empty




NASA's NSSDC Master Catalog

Two Line Element Set (TLE):
1 48604U 21041BD  24109.83214044  .00001659  00000-0  13036-3 0  9999
2 48604  53.0555 358.5071 0001302  83.1853 276.9284 15.06367709162359
Source of the keplerian elements: AFSPC